Location: Arbon
(43.0005°N, 0.7472°E)
Time: 13:37:12
(UTC+00:00)

Vanguard 1 - Pass Details

Date: 01 December 2020
Orbit: 648 x 3834 km, 34.3° (Epoch: 23 January)

Event Time Altitude Azimuth Distance (km) Brightness Sun altitude
Rises 09:15:58 0° 271° (W) 4,483 13.1 16.5°
Reaches altitude 10° 09:18:43 10° 262° (W) 3,838 12.9 16.8°
Maximum altitude 09:28:10 37° 200° (SSW) 3,231 13.4 17.7°
Drops below altitude 10° 09:43:50 10° 142° (SE) 6,281 16.4 19.3°
Sets 09:50:03 0° 136° (SE) 7,652 16.0 19.8°
